Location: Miami
(25.6830°N, 80.1700°W)
Time: 20:01:11
(UTC-04:00)

Tiangong 1 - Visible Passes

Search period start: 19 November 2017 00:00
Search period end: 29 November 2017 00:00
Orbit: 285 x 309 km, 42.8° (Epoch: 19 November)

Date Brightness Start Highest point End Pass type
(mag) Time Alt. Az. Time Alt. Az. Time Alt. Az.
19 Nov 3.2 19:41:09 10° SSE 19:41:39 12° SSE 19:41:39 12° SSE visible
20 Nov 1.8 19:47:02 10° SSW 19:48:54 32° S 19:48:54 32° S visible
21 Nov 1.5 19:53:52 10° WSW 19:55:58 47° W 19:55:58 47° W visible
22 Nov 2.9 20:01:16 10° W 20:02:51 20° NW 20:02:51 20° NW visible
